Zurück zum Katalog

STARLINK-35086

AktivKommunikationVLEO
NORAD 65699·PAYLOAD·🇺🇸 United States

Gestartet Sep 21, 2025 von Cape Canaveral Space Force Station

Loading…

Nächste Überflüge (nächste 24 Stunden)

TLE

AktuellSource: CelesTrak SupGP

Epoche: Sep 15, 2026, 03:04 UTC

1 65699C 25212Z   26258.12826389 -.00054194  00000+0 -17428-2 0  2585
2 65699  53.1573 184.9390 0001342  90.1378 100.0896 15.31727413    12

Verfolge STARLINK-35086 in Echtzeit mit AllMySat

Download on the App Store